Other Public Products
Issued by NWS Grand Forks, ND

Home | Current Version | Previous Version | Text Only | Print | Product List | Glossary On
Versions: 1 2 3 4 5 6 7 8 9 10 11 12 13 14 15 16 17 18 19 20 21 22 23 24 25 26 27 28 29 30 31 32 33 34 35 36 37 38 39 40 41 42 43 44 45 46 47 48 49 50
000
FPUS83 KFGF 270831
OPUFGF
PRAIRIE TO PINES WEATHER ROUNDUP
NATIONAL WEATHER SERVICE EASTERN NORTH DAKOTA/GRAND FORKS ND
200 AM CST THU NOV 27 2014

 **SATELLITE DATA USED TO AUGMENT SKY COVER AT AUTOMATED STATIONS**
 *****  WEATHER ACROSS EASTERN NORTH DAKOTA  *****

CITY           SKY/WX    TMP DP  RH WIND       PRES   REMARKS
GRAND FORKS    MOCLDY   -13 -18  78 SW3       30.56F
GRAND FORKS AF MOCLDY   -14 -19  76 SW2       30.55S
GRAND CITY NWS   N/A    -11 N/A N/A MISG        N/A
BUXTON           N/A    -10 -13  90 CALM        N/A
DEVILS LAKE    MOCLDY    -4 -13  65 SW5       30.44S WCI -15
FARGO          PTCLDY   -10 -17  71 N5        30.56F WCI -22
WAHPETON ARPT  SUNNY     -9 -15  77 NW5       30.55R WCI -21
$$

 *****  WEATHER ACROSS CENTRAL AND WESTERN NORTH DAKOTA  *****

CITY           SKY/WX    TMP DP  RH WIND       PRES   REMARKS
JAMESTOWN      MOCLDY   -23 -29  73 CALM      30.48S
BISMARCK       MOCLDY    -9 -14  78 E3        30.45F
MINOT          CLOUDY   -16 -21  78 CALM      30.39F
MINOT AFB      MOCLDY   -22 -27  76 S3        30.40F
GARRISON         N/A      2  -2  83 E5        30.38F WCI  -8
WILLISTON      MOCLDY     6   2  83 NE5       30.32F WCI  -3
DICKINSON      PTCLDY    12   9  87 S12       30.25F WCI  -2
HETTINGER      CLOUDY     9   6  88 SE7       30.29S WCI  -2
$$

 *****  OTHER OBSERVATIONS NORTHEAST NORTH DAKOTA  *****

CITY           SKY/WX    TMP DP  RH WIND       PRES   REMARKS
WALHALLA         N/A    -13 -18  77 S3        30.53F
LANGDON        FAIR     -15 -20  76 CALM      30.44F
CAVALIER       FAIR     -15 -20  76 CALM      30.54F
GRAFTON        FAIR     -13 -18  77 CALM      30.56F
CANDO          FAIR     -13 -18  77 CALM      30.46F
FORT TOTTEN      N/A    -10 -16  74 CALM      29.95S
ROLLA          FAIR     -13 -18  77 SW3       30.41S
RUGBY          FAIR     -15 -20  76 S5        30.44F WCI -27
 ***** THE ABOVE OBSERVATIONS ARE NON NWS ARE NOT QUALITY
        CONTROLLED AND MAY MIS-REPORT RAIN FOR SNOW...
$$

 *****  OTHER OBSERVATIONS SOUTHEAST NORTH DAKOTA *****

CITY           SKY/WX    TMP DP  RH WIND       PRES   REMARKS
COOPERSTOWN    NOT AVBL
VALLEY CITY    FAIR     -17 -20  83 CALM      30.49F
OAKES            N/A    -13 -18  77 CALM      30.51S
GWINNER        SUNNY     -6 -13  71 CALM      30.52S
BUFFALO        NOT AVBL
WYNDMERE         N/A     -9 -15  77 NW2         N/A
 ***** THE ABOVE OBSERVATIONS ARE NON NWS ARE NOT QUALITY
       CONTROLLED AND MAY MIS-REPORT RAIN FOR SNOW...
$$

  *****  WEATHER ACROSS NORTHERN MINNESOTA  *****

CITY           SKY/WX    TMP DP  RH WIND       PRES   REMARKS
FLAG ISLAND    PTCLDY   -15 -18  84 NW5       30.48R WCI -27
WARROAD        PTCLDY   -13 -18  77 W5        30.50R WCI -25
ROSEAU         FAIR     -11 -17  77 W5        30.51S WCI -23
HALLOCK        MOCLDY   -15 -20  76 CALM      30.55S
THF RVR FALLS  MOCLDY   -11 -11 100 CALM      30.51S
HALSTAD          N/A    -13 -17  84 N2          N/A
FOSSTON        PTCLDY   -18 -24  76 CALM      30.50S
BAUDETTE       PTCLDY   -13 -17  82 CALM      30.46F
WASKISH        PTCLDY    -9 -13  84 CALM      30.47S
CROOKSTON      MOCLDY   -11 -17  77 CALM      30.57S
$$
  *****  WEATHER ACROSS CENTRAL AND WEST MINNESOTA  *****

CITY           SKY/WX    TMP DP  RH WIND       PRES   REMARKS
BEMIDJI        MOCLDY   -13 -18  80 W3        30.46R
PARK RAPIDS    PTCLDY   -14 -18  82 NW6       30.45S WCI -28
WADENA         PTCLDY    -8 -11  84 NW5       30.47R WCI -19
DETROIT LAKES  PTCLDY    -9 -13  84 NW5       30.50R WCI -21
MOORHEAD       PTCLDY    -9 -11  92 N5        30.54F WCI -21
FERGUS FALLS   PTCLDY    -8 -15  71 NE3       30.55S
ELBOW LAKE     FAIR      -8 -12  84 N5        30.49F WCI -19
MORRIS MN      PTCLDY    -8 -13  77 NW8       30.50S WCI -23
STAPLES        CLEAR     -8 -11  84 NW6       30.47S WCI -21
WHEATON        PTCLDY    -8 -11  84 NW5       30.56S WCI -19
$$
  *****  WEATHER ELSEWHERE ACROSS MINNESOTA  *****

CITY           SKY/WX    TMP DP  RH WIND       PRES   REMARKS
DULUTH         CLEAR     -4 -10  75 NW7       30.36R WCI -18
INTRNTL FALLS  PTCLDY   -14 -18  82 NW3       30.44F
ELY            CLEAR    -11 -15  84 CALM      30.38R
CLOQUET        CLEAR     -4  -9  77 NW7       30.39S WCI -18
BRAINERD       CLEAR     -3  -8  79 N6        30.46R WCI -15
HIBBING        PTCLDY    -7 -13  75 N7        30.40S WCI -21
ALEXANDRIA     CLEAR     -4  -9  79 NW10      30.47R WCI -21
SAINT CLOUD    CLEAR      1  -7  68 NW8       30.46S WCI -13
MINNEAPOLIS    CLEAR      5  -3  69 N9        30.45R WCI  -9
$$

  *****  WEATHER ACROSS SOUTH DAKOTA  *****

CITY           SKY/WX    TMP DP  RH WIND       PRES   REMARKS
SIOUX FALLS    PTCLDY     0  -7  72 NW5       30.50R WCI -10
BROOKINGS      NOT AVBL
WATERTOWN      PTCLDY    -8 -13  78 N5        30.44F WCI -19
HURON          MOCLDY    -5  -9  83 NW5       30.52S WCI -16
SISSETON         N/A    -10 -14  82 NW6       30.52F WCI -23
ABERDEEN       MOCLDY   -10 -15  78 N5        30.52F WCI -22
MITCHELL       CLOUDY     7   0  73 N7        30.53S WCI  -5
PIERRE         CLOUDY     8   4  83 E10       30.43S WCI  -6
MOBRIDGE       MOCLDY     0  -5  79 E8        30.41S WCI -14
RAPID CITY     CLOUDY    23  21  92 E6        30.24S WCI  16
$$

  *****  SOME WEATHER IN NEARBY STATES *****

CITY           SKY/WX    TMP DP  RH WIND       PRES   REMARKS
GLASGOW MT     FLURRIES  17  12  80 E15       30.16F WCI   2
GREAT FALLS MT CLOUDY    35  32  88 SW15      29.93F
CHEYENNE WY    MOCLDY    43  25  49 W12       30.22R
SCOTTSBLUFF NE CLEAR     19  17  92 E7        30.23S WCI  10
OMAHA NE       PTCLDY    17  11  77 N6        30.51R WCI   9
DES MOINES IA  FLURRIES  20  15  81 NW22      30.42R WCI   3
DAVENPORT IA   MOCLDY    20  17  88 NW7       30.31R WCI  11
CHICAGO IL     CLOUDY    25  20  81 NW13      30.19R WCI  14
EAU CLAIRE WI  CLOUDY    12   5  73 N8        30.36R WCI   0
LA CROSSE WI   CLOUDY    21  13  71 N12       30.35R WCI   9
$$

  *****  SOME NATIONAL WEATHER *****

CITY           SKY/WX    TMP DP  RH WIND       PRES   REMARKS
LA GUARDIA NY  CLOUDY    37  30  75 N14       29.90R
RALEIGH NC     MOCLDY    40  38  93 CALM      30.05F
ATLANTA GA     PTCLDY    46  22  38 W13       30.10R
NEW ORLEANS LA CLEAR     55  47  74 NW10      30.30R
OKLAHOMA CITY  PTCLDY    33  23  66 NW6       30.48R
ALBUQUERQUE NM CLEAR     37  22  54 E6        30.43S
SALT LAKE CITY CLEAR     44  29  55 SE13      30.34S
LOS ANGELES CA CLEAR     68  30  24 CALM      30.12F
BOISE ID       CLOUDY    50  36  58 E6        30.16R
SEATTLE WA     CLOUDY    56  49  77 S6        29.88S
$$

*** WEATHER ACROSS MANITOBA...SASKATCHEWAN AND ONTARIO ***
                ***ONTARIO***

CITY           SKY/WX    TMP DP  RH WIND       PRES   REMARKS
GERALDTON      CLEAR    -18 -24  76 N3        30.32S
THUNDER BAY    CLEAR     -8 -13  77 W5        30.43R WCI -19
SIOUX LOOKOUT  CLEAR    -13 -18  77 N3        30.40S
TORONTO        CLOUDY    30  19  64 NE3       30.06S
BIG TROUT LK   CLEAR    -20 -26  76 SW3       30.35S
PICKLE LAKE    NOT AVBL
DRYDEN         CLEAR    -15 -18  84 W7        30.41F WCI -31
KENORA         CLEAR    -13 -17  84 NW6       30.43S WCI -27
$$
                *** MANITOBA***

CITY           SKY/WX    TMP DP  RH WIND       PRES   REMARKS
BRANDON        CLEAR    -17 -22  76 W3        30.45F
DAUPHIN        CLEAR     -8 -13  77 SW9       30.44F WCI -25
ISLAND LAKE    CLEAR    -17 -22  76 SW3       30.40F
PILOT MOUND      N/A    -15 -18  84 W3          N/A
THE PAS        CLEAR    -17 -22  76 S6        30.34F WCI -31
THOMPSON       PTCLDY   -17 -22  76 S6        30.28F WCI -31
WINNIPEG       CLEAR    -13 -20  70 SW6       30.55S WCI -27
LYNN LAKE      FLURRIES  -4  -9  77 W9        30.13F WCI -20
CHURCHILL      PTCLDY    -6 -11  77 W17G23    30.09F WCI -28
GILLAM         CLEAR    -15 -20  76 SW8       30.25F WCI -32
$$
                ***SASKATCHEWAN***

CITY           SKY/WX    TMP DP  RH WIND       PRES   REMARKS
ESTEVAN        PTCLDY   -15 -18  84 E8        30.33F WCI -32
KINDERSLEY     MOCLDY     9   5  85 E7        30.10  WCI  -3
LLOYDMINSTER   MOCLDY    12   9  85 NE3       30.10S
PRINCE ALBERT  FLURRIES  -4  -9  77 E6        30.25F WCI -16
REGINA         FLURRIES   5   1  85 SE13      30.27F WCI -12
YORKTON        CLEAR    -15 -20  76 S12       30.32F WCI -36


USA.gov is the U.S. government's official web portal to all federal, state and local government web resources and services.